Change the Weather History Date:

Thursday, January 16, 2014

  Actual Average Record
Temperature  
Mean Temperature 19 °F 19 °F  
Max Temperature 33 °F 26 °F 54 °F (1933)
Min Temperature 5 °F 11 °F -30 °F (1888)
Degree Days  
Heating Degree Days 46 46  
Month to date heating degree days 852 736  
Since 1 July heating degree days 3977 3546  
Cooling Degree Days 0 0  
Month to date cooling degree days 0 0  
Year to date cooling degree days 0 0  
Moisture  
Dew Point 19 °F    
Average Humidity 78    
Maximum Humidity 96    
Minimum Humidity 59    
Precipitation  
Precipitation 0.06 in 0.04 in 1.13 in (1980)
Month to date precipitation 0.26 0.61  
Year to date precipitation 0.26 0.61  
Snow  
Snow 0.80 in 0.30 in - ()
Month to date snowfall 2.6 5.1  
Since 1 July snowfall 24.9 19.7  
Snow Depth 4.00 in    
Sea Level Pressure  
Sea Level Pressure 29.57 in    
Wind  
Wind Speed 18 mph (West)    
Max Wind Speed 33 mph    
Max Gust Speed 43 mph    
Visibility 6 miles    
Events Fog , Snow    
T = Trace of Precipitation, MM = Missing Value Source: NWS Daily Summary

Daily Weather History Graph

Daily Weather History Graph

Search for Another Location

Airport or City:

Trip Planner

Search our weather history database for the weather conditions in past years. The results will help you decide how hot, cold, wet, or windy it might be!

Date:

Astronomy

Jan. 16, 2014 Rise Set
Actual Time 7:28 AM CST 4:56 PM CST
Civil Twilight 6:57 AM CST 5:27 PM CST
Nautical Twilight 6:23 AM CST 6:02 PM CST
Astronomical Twilight 5:49 AM CST 6:35 PM CST
Moon 5:50 PM CST (1/16) 7:20 AM CST (1/16)
Length of Visible Light 10h 29m
Length of Day
9h 27m
Full, 100% of the Moon is Illuminated
Jan 16
Full
Jan 23
Last Quarter
Jan 30
New
Feb 6
First Quarter
Feb 14
Full

Hourly Weather History & Observations

Time (CST) Temp. Windchill Dew Point Humidity Pressure Visibility Wind Dir Wind Speed Gust Speed Precip Events Conditions
12:53 AM 21.0 °F 5.4 °F 15.1 °F 78% 29.66 in 10.0 mi SSW 20.7 mph - N/A   Clear
1:53 AM 21.9 °F 5.8 °F 16.0 °F 78% 29.63 in 10.0 mi SSW 23.0 mph - N/A   Partly Cloudy
2:53 AM 23.0 °F 8.3 °F 17.1 °F 78% 29.60 in 10.0 mi SSW 19.6 mph - N/A   Overcast
3:53 AM 21.9 °F 8.2 °F 17.1 °F 82% 29.58 in 10.0 mi SSW 16.1 mph - N/A   Partly Cloudy
4:53 AM 21.9 °F 9.2 °F 18.0 °F 85% 29.55 in 10.0 mi SSW 13.8 mph - N/A   Clear
5:53 AM 24.1 °F 12.0 °F 19.9 °F 84% 29.54 in 10.0 mi SSW 13.8 mph - N/A   Overcast
6:38 AM 25.0 °F 13.6 °F 21.0 °F 85% 29.48 in 1.8 mi SSW 12.7 mph - 0.01 in Snow Light Snow
6:48 AM 24.8 °F 13.4 °F 23.0 °F 93% 29.48 in 4.0 mi SSW 12.7 mph - 0.01 in Snow Light Snow
6:53 AM 25.0 °F 13.6 °F 23.0 °F 92% 29.53 in 9.0 mi SSW 12.7 mph - 0.01 in   Overcast
7:53 AM 27.0 °F 17.3 °F 21.9 °F 81% 29.52 in 10.0 mi SW 10.4 mph - N/A   Overcast
8:31 AM 28.0 °F 18.1 °F 24.1 °F 85% 29.47 in 10.0 mi WSW 11.5 mph - N/A   Overcast
8:53 AM 28.0 °F 18.1 °F 25.0 °F 88% 29.52 in 7.0 mi SW 11.5 mph - N/A   Overcast
9:06 AM 28.9 °F 18.6 °F 26.1 °F 89% 29.47 in 0.5 mi WSW 12.7 mph - 0.00 in Fog , Snow Light Snow
9:16 AM 28.9 °F 18.6 °F 27.0 °F 92% 29.47 in 0.5 mi WSW 12.7 mph - 0.00 in Fog , Snow Snow
9:44 AM 30.0 °F 19.1 °F 28.9 °F 96% 29.47 in 0.5 mi WSW 15.0 mph - 0.01 in Fog , Snow Light Snow
9:50 AM 30.2 °F 19.3 °F 30.2 °F 100% 29.47 in 0.5 mi WSW 15.0 mph - 0.01 in Fog Light Freezing Fog
9:53 AM 30.0 °F 19.5 °F 30.0 °F 100% 29.52 in 0.5 mi WSW 13.8 mph - 0.01 in Fog , Snow Light Snow
10:00 AM 30.9 °F 20.2 °F 30.0 °F 96% 29.47 in 3.0 mi WSW 15.0 mph - 0.00 in Snow Light Snow
10:22 AM 32.0 °F 21.6 °F 30.9 °F 96% 29.47 in 1.8 mi WSW 15.0 mph - 0.01 in Snow Light Snow
10:53 AM 32.0 °F 20.8 °F 30.9 °F 96% 29.50 in 1.5 mi WSW 17.3 mph - 0.01 in Snow Light Snow
11:17 AM 32.0 °F 21.2 °F 30.9 °F 96% 29.45 in 0.8 mi West 16.1 mph - 0.01 in Snow Light Snow
11:35 AM 32.0 °F 21.2 °F 32.0 °F 100% 29.45 in 0.5 mi West 16.1 mph - 0.02 in Fog , Snow Snow
11:53 AM 33.1 °F 22.6 °F 32.0 °F 96% 29.49 in 1.0 mi West 16.1 mph - 0.03 in Snow Light Snow
12:22 PM 30.9 °F 17.2 °F 28.9 °F 92% 29.46 in 1.5 mi WNW 25.3 mph 31.1 mph 0.00 in Snow Light Snow
12:36 PM 30.9 °F 16.4 °F 27.0 °F 85% 29.46 in 1.2 mi WNW 28.8 mph 35.7 mph 0.00 in Snow Light Snow
12:53 PM 28.9 °F 14.5 °F 24.1 °F 82% 29.51 in 1.5 mi WNW 25.3 mph 43.7 mph 0.00 in Snow Light Snow
12:56 PM 28.9 °F 14.8 °F 25.0 °F 85% 29.47 in 5.0 mi WNW 24.2 mph 40.3 mph 0.00 in   Overcast
1:17 PM 28.9 °F 15.1 °F 21.9 °F 75% 29.47 in 5.0 mi NW 23.0 mph 40.3 mph 0.00 in   Haze
1:53 PM 28.0 °F 14.3 °F 19.0 °F 69% 29.54 in 5.0 mi WNW 21.9 mph 34.5 mph 0.00 in   Haze
2:17 PM 25.0 °F 9.5 °F 19.9 °F 81% 29.52 in 2.5 mi West 24.2 mph 34.5 mph N/A   Haze
2:26 PM 25.0 °F 9.5 °F 19.9 °F 81% 29.52 in 3.0 mi WNW 24.2 mph 31.1 mph N/A   Haze
2:36 PM 25.0 °F 9.2 °F 19.0 °F 78% 29.53 in 4.0 mi WNW 25.3 mph 33.4 mph N/A   Haze
2:53 PM 25.0 °F 8.1 °F 16.0 °F 69% 29.60 in 10.0 mi WNW 29.9 mph 40.3 mph N/A   Overcast
3:00 PM 25.0 °F 9.2 °F 15.1 °F 66% 29.56 in 4.0 mi WNW 25.3 mph 40.3 mph N/A   Mostly Cloudy
3:53 PM 23.0 °F 8.3 °F 10.9 °F 60% 29.62 in 8.0 mi NW 19.6 mph 39.1 mph N/A   Clear
4:53 PM 19.9 °F 2.5 °F 9.0 °F 62% 29.65 in 10.0 mi WNW 25.3 mph 33.4 mph N/A   Clear
5:53 PM 17.1 °F -0.3 °F 9.0 °F 71% 29.68 in 10.0 mi NW 21.9 mph 28.8 mph N/A   Overcast
6:53 PM 14.0 °F -3.4 °F 7.0 °F 74% 29.73 in 10.0 mi WNW 19.6 mph - N/A   Overcast
7:53 PM 10.9 °F -7.5 °F 3.9 °F 73% 29.75 in 10.0 mi WNW 19.6 mph - N/A   Partly Cloudy
8:53 PM 9.0 °F -9.5 °F 3.0 °F 77% 29.77 in 10.0 mi WNW 18.4 mph - N/A   Mostly Cloudy
9:53 PM 7.0 °F -9.8 °F 1.0 °F 77% 29.79 in 10.0 mi WNW 13.8 mph - N/A   Clear
10:53 PM 6.1 °F -10.2 °F 1.0 °F 80% 29.81 in 10.0 mi WNW 12.7 mph - N/A   Scattered Clouds
11:53 PM 5.0 °F -13.0 °F 1.0 °F 84% 29.82 in 10.0 mi WNW 15.0 mph - N/A   Overcast